Regional Weather Roundup
Issued by NWS Newport/Morehead, NC

Current Version | Previous Version | Text Only | Print | Product List | Glossary On
Versions: 1 2 3 4 5 6 7 8 9 10 11 12 13 14 15 16 17 18 19 20 21 22 23 24 25 26 27 28 29 30 31 32 33 34 35 36 37 38 39 40 41 42 43 44 45 46 47 48 49 50
000
ASUS42 KMHX 191025
RWRMHX
WEATHER ROUNDUP FOR EASTERN NORTH CAROLINA
NATIONAL WEATHER SERVICE NEWPORT/MOREHEAD CITY NC
500 AM EST SUN NOV 19 2017

NOTE: "FAIR" INDICATES FEW OR NO CLOUDS BELOW 12,000 FEET
WITH NO SIGNIFICANT WEATHER AND/OR OBSTRUCTIONS TO VISIBILITY

NCZ015>017-031-032-045>047-102-103-191100-
NORTH COAST

CITY           SKY/WX    TMP DP  RH WIND       PRES   REMARKS
EDENTON        CLOUDY    68  56  66 SW20G26   29.55S
ELIZABETH CITY MOCLDY    66  57  72 S20G28    29.53F
KITTY HAWK     PTSUNNY   65  53  66 SW14G22   29.54F
MANTEO         MOCLDY    65  54  69 SW23G31   29.56F

$$

NCZ045>047-081-094-103-104-191100-
CENTRAL COAST

CITY           SKY/WX    TMP DP  RH WIND       PRES   REMARKS
FRISCO         MOCLDY    67  61  81 SW18G30   29.62F

$$

NCZ095-097-098-100-101-191100-
SOUTHERN COAST

CITY           SKY/WX    TMP DP  RH WIND       PRES   REMARKS
BEAUFORT       PTCLDY    67  61  81 SW23      29.64S
CEDAR ISLAND   NOT AVBL
JACKSONVILLE   NOT AVBL
PINEY ISLAND   NOT AVBL
WILMINGTON     CLOUDY    69  57  65 SW20G36   29.66S


$$

NCZ011>013-027>030-043-044-078>080-089-090>093-098-191100-
COASTAL PLAIN

CITY           SKY/WX    TMP DP  RH WIND       PRES   REMARKS
AHOSKIE        RAIN      60  58  91 SW3       29.54R
CLINTON        CLOUDY    64  60  88 SW13G22   29.63R
ELIZABETHTOWN  NOT AVBL
GOLDSBORO      LGT RAIN  64  57  77 SW21G26   29.58R
GREENVILLE     LGT RAIN  64  55  72 SW17G26   29.60S
HAVELOCK       NOT AVBL
KENANSVILLE    CLOUDY    66  57  72 SW16G26   29.61S
KINSTON        LGT RAIN  67  56  67 SW21G30   29.59S
NEW BERN       CLOUDY    66  57  72 SW16G28   29.61F
RICHLANDS      CLOUDY    68  57  68 SW17G26   29.62F
ROCKY MOUNT    LGT RAIN  61  59  93 SW10      29.56R
WASHINGTON     CLOUDY    67  55  66 SW14G26   29.57S
WHITEVILLE     CLOUDY    67  56  68 SW13G23   29.67R

$$

AMZ130-135-150-152-154-156-158-170-250-252-270-ANZ085-086-088-633-658-670-191100-
MARINE OBSERVATIONS

STATION/POSITION TIME  TEMP    WIND        PRES    WAVE   SWELL
                       AIR SEA DIR/SP/G            HT/PER HT/PER
                 (UTC) (F)     (DEG/KT/KT) (MB)    (FT/S) (FT/S)
CHESAPEAKE LIGHT NOT AVBL
64 E VA BEACH    0950   65 62  210/ 27/ 33  999.8    7/ 5
DUCK             NOT AVBL
2 E DUCK         1000      62                N/A     3/ 7
OREGON INLET     NOT AVBL
13E OREGON INLT  0948      62                N/A     6/ 8
HATTERAS CG      NOT AVBL
DIAMOND BUOY     1000   70     230/ 21/ 29 1003.6
CAPE LOOKOUT     1000          220/ 15/ 22 1004.3
BEAUFORT LAB     NOT AVBL
30 SE NEW RVR IN 1008   71 70  210/ 21/ 27 1004.3
30 SE NEW RVR IN 1000      70                N/A     9/ 7
27 SE WRIGHTSVLE 1008   71 68  220/ 25/ 37 1004.3
5 SE WRIGHTSVLE  1008   67 64  230/ 17/ 25 1004.3
225 S CAPE HAT   0950   75 77  210/ 17/ 23 1010.6    4/ 5   2/ 8
41 SE CHARLESTON 1000   73     220/ 27/ 37 1006.8

$$



USA.gov is the U.S. government's official web portal to all federal, state and local government web resources and services.